Station APAM2 - 8575512 - Annapolis, MD Image indicating link to RSS feed of recent meteorological observations for station APAM2


Conditions at APAM2 as of
(8:00 pm EDT on 06/21/2024)
0000 GMT on 06/22/2024:
     

Click on the graph icon in the table below to see a time series plot of the last five days of that observation.

5-day plot - Wind Direction Wind Direction (WDIR):SSE ( 160 deg true )
5-day plot - Wind Speed Wind Speed (WSPD): 7.0 kts
5-day plot - Wind Gust Wind Gust (GST): 12.0 kts
5-day plot - Air Temperature Air Temperature (ATMP): 82.2 °F
5-day plot - Water Temperature Water Temperature (WTMP): 82.8 °F
5-day plot -  Wind Speed, Wind Gust and Atmospheric Pressure Combined plot of Wind Speed, Gust, and Air Pressure
NOS Water Level Observation Network Water Level
Previous observations
TIME
(EDT)
5-day plot - Wind Direction
WDIR
 
5-day plot - Wind Speed
WSPD
kts
5-day plot - Wind Gust
GST
kts
5-day plot - Wave Height
WVHT
ft
5-day plot - Dominant Wave Period
DPD
sec
5-day plot - Average Wave Period
APD
sec
5-day plot - Mean Wave Direction
MWD
 
5-day plot - Atmospheric Pressure
PRES
in
5-day plot - Pressure Tendency
PTDY
in
5-day plot - Air Temperature
ATMP
°F
5-day plot - Water Temperature
WTMP
°F
5-day plot - Dew Point
DEWP
°F
5-day plot - Salinity
SAL
psu
5-day plot - Visibility
VIS
nmi
5-day plot - Tide (above MLLW)
TIDE
ft
2024-06-21 07:54 pmSSE 7.0 13.0------ 82.4 82.9----
2024-06-21 07:48 pmSSE 8.0 13.0----30.08- 82.4 82.8----
2024-06-21 07:42 pmSSE 6.0 15.9----30.08- 82.6 82.8----
2024-06-21 07:36 pmSSE 7.0 13.0----30.08- 82.6 82.6----
2024-06-21 07:30 pmSSE 8.0 13.0----30.08- 82.8 82.6----
2024-06-21 07:24 pmSSE 8.0 14.0----30.08- 82.9 82.6----
2024-06-21 07:00 pmSSE 7.0 11.1----30.08-0.03 83.8 82.6----
2024-06-21 06:54 pm SE 8.0 14.0----30.08- 83.8 82.6----
2024-06-21 06:48 pm-------30.08- 84.6 82.6----
2024-06-21 06:42 pm-------30.08- 84.6 82.4----
2024-06-21 06:36 pm-------30.09- 84.9 82.4----
2024-06-21 06:30 pmSSE 7.0 13.0----30.09- 85.3 82.4----
2024-06-21 06:24 pmSSE 6.0 11.1----30.09- 85.5 82.4----
2024-06-21 06:18 pmSSE 5.1 8.9----30.09- 85.8 82.4----
2024-06-21 06:12 pmSSE 7.0 13.0----30.09- 85.6 82.4----
2024-06-21 06:06 pmSSE 7.0 12.0----30.08- 85.8 82.4----
2024-06-21 06:00 pmSSE 6.0 13.0----30.08-0.06 86.4 82.6----
2024-06-21 05:54 pmSSE 6.0 9.9----30.08- 86.4 82.4----
2024-06-21 05:48 pmSSE 6.0 12.0----30.09- 86.7 82.4----
2024-06-21 05:42 pmSSE 6.0 15.0----30.09- 86.7 82.6----
2024-06-21 05:36 pmSSE 5.1 13.0----30.09- 87.4 82.6----
2024-06-21 05:30 pmSSE 7.0 11.1----30.09- 86.7 82.4----
2024-06-21 05:24 pm SE 8.0 12.0----30.09- 86.7 82.4----
2024-06-21 05:18 pmSSE 8.9 14.0----30.09- 86.7 82.4----
2024-06-21 05:12 pmSSE 8.0 13.0----30.09- 87.1 82.6----
2024-06-21 05:06 pmSSE 7.0 15.0----30.10- 87.3 82.6----
2024-06-21 05:00 pmSSE 8.9 13.0----30.10-0.06 87.1 82.8----
2024-06-21 04:54 pm SE 7.0 13.0----30.10- 87.8 82.8----
2024-06-21 04:48 pmSSE 9.9 14.0----30.10- 87.6 82.9----
2024-06-21 04:42 pmSSE 5.1 12.0----30.10- 88.5 82.9----
2024-06-21 04:36 pmSSE 4.1 12.0----30.11- 88.0 82.9----
2024-06-21 04:30 pm SE 6.0 8.9----30.11- 87.3 82.9----
2024-06-21 04:24 pm SE 5.1 8.9----30.11- 88.0 83.1----
2024-06-21 04:18 pm SE 6.0 11.1----30.11- 87.4 83.1----
2024-06-21 04:12 pm SE 5.1 12.0----30.11- 87.1 83.1----
2024-06-21 04:06 pm SE 6.0 11.1----30.11- 87.4 83.1----
2024-06-21 04:00 pm SE 7.0 12.0----30.11-0.06 87.1 83.1----
2024-06-21 03:54 pm SE 6.0 11.1----30.12- 86.9 83.3----
2024-06-21 03:48 pmESE 6.0 11.1----30.12- 86.7 83.3----
2024-06-21 03:42 pmESE 8.0 12.0----30.12- 86.4 83.3----
2024-06-21 03:36 pmESE 6.0 12.0----30.13- 86.5 83.5----
2024-06-21 03:30 pmESE 7.0 12.0----30.13- 86.4 83.5----
2024-06-21 03:24 pmESE 8.0 11.1----30.13- 86.0 83.3----
2024-06-21 03:18 pmESE 8.0 12.0----30.14- 85.8 83.1----
2024-06-21 03:12 pmESE 8.0 12.0----30.14- 86.2 82.9----
2024-06-21 03:06 pmESE 6.0 9.9----30.14- 86.0 82.8----
2024-06-21 03:00 pmESE 8.0 11.1----30.14-0.06 85.5 82.8----
2024-06-21 02:54 pm SE 7.0 12.0----30.14- 85.8 82.9----
2024-06-21 02:48 pm SE 8.0 11.1----30.14- 85.6 83.3----
2024-06-21 02:42 pmESE 7.0 11.1----30.14- 85.5 83.3----
2024-06-21 02:36 pmESE 7.0 9.9----30.14- 85.8 83.7----
2024-06-21 02:30 pmESE 7.0 11.1----30.15- 85.5 83.8----
2024-06-21 02:24 pmESE 7.0 9.9----30.15- 85.1 83.5----
2024-06-21 02:18 pmESE 7.0 11.1----30.15- 84.6 83.8----
2024-06-21 02:12 pmESE 7.0 9.9----30.15- 84.9 83.8----
2024-06-21 02:06 pmESE 7.0 8.9----30.15- 84.7 83.3----
2024-06-21 02:00 pmESE 6.0 11.1----30.16-0.05 84.6 84.7----
2024-06-21 01:54 pmESE 7.0 9.9----30.16- 84.6 84.2----
2024-06-21 01:48 pmESE 7.0 11.1----30.16- 84.4 84.2----
2024-06-21 01:42 pmESE 7.0 9.9----30.16- 84.0 83.8----
2024-06-21 01:36 pmESE 7.0 9.9----30.17- 84.0 83.7----
2024-06-21 01:30 pmESE 6.0 8.9----30.17- 83.8 83.7----
2024-06-21 01:24 pmESE 7.0 11.1----30.17- 83.5 83.7----
2024-06-21 01:18 pmESE 7.0 11.1----30.17- 83.7 83.7----
2024-06-21 01:12 pmESE 8.0 11.1----30.18- 83.5 83.7----
2024-06-21 01:06 pmESE 7.0 9.9----30.18- 83.3 83.3----
2024-06-21 01:00 pmESE 7.0 8.9----30.18-0.03 83.3 83.7----
2024-06-21 12:54 pmESE 6.0 11.1----30.18- 83.1 83.5----
2024-06-21 12:48 pmESE 7.0 9.9----30.19- 82.8 83.5----
2024-06-21 12:42 pmESE 7.0 11.1----30.19- 82.6 83.3----
2024-06-21 12:36 pm E 7.0 9.9----30.19- 82.2 83.3----
2024-06-21 12:30 pmESE 6.0 9.9----30.19- 82.4 83.1----
2024-06-21 12:24 pmESE 6.0 11.1----30.19- 82.0 83.1----
2024-06-21 12:18 pmESE 5.1 8.9----30.20- 82.6 82.9----
2024-06-21 12:12 pmESE 6.0 8.9----30.20- 82.0 82.9----
2024-06-21 12:06 pmESE 7.0 9.9----30.20- 81.3 82.9----
2024-06-21 12:00 pmESE 6.0 8.9----30.20-0.01 81.5 83.1----
2024-06-21 11:54 amESE 6.0 9.9----30.20- 81.7 82.9----
2024-06-21 11:48 amESE 7.0 9.9----30.20- 81.1 82.8----
2024-06-21 11:42 amESE 6.0 9.9----30.20- 81.3 82.8----
2024-06-21 11:36 amESE 6.0 9.9----30.20- 81.0 82.6----
2024-06-21 11:30 amESE 5.1 8.9----30.20- 81.3 82.6----
2024-06-21 11:24 amESE 8.0 9.9----30.20- 80.8 82.6----
2024-06-21 11:18 amESE 7.0 11.1----30.20- 80.8 82.2----
2024-06-21 11:12 amESE 6.0 8.9----30.20- 81.3 82.4----
2024-06-21 11:06 amESE 6.0 8.0----30.20- 81.5 82.4----
2024-06-21 11:00 amESE 4.1 8.0----30.21-0.02 81.3 82.2----
2024-06-21 10:54 amESE 5.1 8.0----30.21- 81.5 82.2----
2024-06-21 10:48 am E 7.0 9.9----30.21- 81.1 82.2----
2024-06-21 10:42 amESE 5.1 8.9----30.21- 82.4 82.2----
2024-06-21 10:36 amESE 2.9 6.0----30.21- 83.7 82.0----
2024-06-21 10:30 am S 5.1 7.0----30.21- 82.9 82.2----
2024-06-21 10:24 am SE 2.9 5.1----30.21- 84.2 82.0----
2024-06-21 10:18 amSSE 1.9 5.1----30.21- 84.0 82.0----
2024-06-21 10:12 am- 0.0 5.1----30.21- 82.9 82.0----
2024-06-21 10:06 am SW 1.0 5.1----30.21- 83.1 82.0----
2024-06-21 10:00 amSSE 2.9 7.0----30.21-0.01 82.0 82.0----
2024-06-21 09:54 am S 2.9 7.0----30.21- 82.0 82.0----
2024-06-21 09:48 am S 4.1 7.0----30.21- 81.0 81.9----
2024-06-21 09:42 amSSW 2.9 7.0----30.22- 81.1 81.9----
2024-06-21 09:36 am S 5.1 8.9----30.22- 80.4 81.9----
2024-06-21 09:30 am S 2.9 7.0----30.22- 80.8 81.9----
2024-06-21 09:24 amSSW 4.1 6.0----30.21- 80.2 81.9----
2024-06-21 09:18 amSSW 5.1 7.0----30.22- 79.5 81.9----
2024-06-21 09:12 amSSW 4.1 7.0----30.22- 79.3 81.9----
2024-06-21 09:06 amSSW 4.1 7.0----30.22- 79.2 81.7----
2024-06-21 09:00 amSSW 5.1 6.0----30.22+0.00 78.8 81.7----
2024-06-21 08:54 amWSW 1.9 8.0----30.22- 79.2 81.7----
2024-06-21 08:48 am S 5.1 8.0----30.22- 78.6 81.7----
2024-06-21 08:42 am S 5.1 8.0----30.22- 78.6 81.7----
2024-06-21 08:36 am S 5.1 7.0----30.22- 77.7 81.7----
2024-06-21 08:30 am S 1.9 8.0----30.22- 77.7 81.7----
2024-06-21 08:24 am S 5.1 8.9----30.22- 77.0 81.7----
2024-06-21 08:18 am S 4.1 8.9----30.22- 77.2 81.7----
2024-06-21 08:12 am- 0.0 6.0----30.22- 78.1 81.9----
2024-06-21 08:06 amSSE 2.9 5.1----30.22- 77.4 81.9----
2024-06-21 08:00 amSSE 1.9 5.1----30.22+0.00 77.4 81.9----
2024-06-21 07:54 am S 2.9 5.1----30.23- 76.8 81.7----
2024-06-21 07:48 am SE 1.9 4.1----30.23- 76.6 81.7----
2024-06-21 07:42 am S 1.9 8.0----30.23- 75.6 81.7----
2024-06-21 07:36 am S 5.1 8.0----30.23- 74.8 81.7----
2024-06-21 07:30 am S 5.1 8.0----30.23- 75.0 81.7----
2024-06-21 07:24 am S 2.9 6.0----30.23- 74.8 81.7----
2024-06-21 07:18 amSSE 1.9 4.1----30.23- 75.4 81.7----
2024-06-21 07:12 am SE 1.9 4.1----30.23- 75.0 81.7----
2024-06-21 07:06 am S 1.9 4.1----30.23- 75.0 81.7----
2024-06-21 07:00 amSSE 1.9 4.1----30.22+0.00 74.7 81.7----
2024-06-21 06:54 am S 2.9 4.1----30.22- 74.5 81.5----
2024-06-21 06:48 amSSE 1.9 5.1----30.22- 74.1 81.7----
2024-06-21 06:42 am SE 2.9 5.1----30.23- 73.6 81.5----
2024-06-21 06:36 am SE 2.9 5.1----30.22- 73.6 81.7----
2024-06-21 06:30 amSSW 1.9 2.9----30.23- 73.6 81.7----
2024-06-21 06:24 am SW 1.0 2.9----30.23- 73.0 81.7----
2024-06-21 06:18 am W 1.0 1.9----30.23- 73.0 81.7----
2024-06-21 06:12 am S 1.0 2.9----30.22- 72.9 81.7----
2024-06-21 06:06 am- 0.0 2.9----30.22- 72.5 81.7----
2024-06-21 06:00 am- 0.0 2.9----30.22+0.00 72.1 81.7----
2024-06-21 05:54 am S 1.0 2.9----30.22- 72.3 81.9----
2024-06-21 05:48 am S 1.0 5.1----30.22- 72.3 81.9----
2024-06-21 05:42 am S 1.9 4.1----30.22- 72.3 81.9----
2024-06-21 05:36 amSSW 1.9 4.1----30.22- 72.5 81.9----
2024-06-21 05:30 am S 2.9 5.1----30.22- 72.5 81.9----
2024-06-21 05:24 am S 1.9 5.1----30.22- 72.5 81.9----
2024-06-21 05:18 amSSE 1.9 5.1----30.22- 72.5 81.9----
2024-06-21 05:12 amSSE 1.9 2.9----30.22- 72.3 81.9----
2024-06-21 05:06 am SE 1.9 2.9----30.22- 72.3 81.9----
2024-06-21 05:00 am SE 1.9 4.1----30.22-0.02 72.5 81.9----
2024-06-21 04:54 am S 1.9 4.1----30.22- 72.7 82.0----
2024-06-21 04:48 amSSE 1.9 2.9----30.22- 72.7 82.0----
2024-06-21 04:42 am- 0.0 1.9----30.22- 72.9 82.0----
2024-06-21 04:36 am S 1.9 4.1----30.22- 73.0 82.0----
2024-06-21 04:30 amSSW 1.9 2.9----30.22- 73.0 81.9----
2024-06-21 04:24 am S 1.9 4.1----30.22- 73.0 82.0----
2024-06-21 04:18 amSSE 1.9 4.1----30.22- 73.2 82.0----
2024-06-21 04:12 amSSW 1.0 4.1----30.22- 73.4 82.0----
2024-06-21 04:06 amSSW 1.9 5.1----30.23- 73.6 82.0----
2024-06-21 04:00 am SE 1.0 2.9----30.23-0.02 73.4 81.9----
2024-06-21 03:54 am SE 1.9 2.9----30.22- 73.6 82.0----
2024-06-21 03:48 am S 1.9 2.9----30.23- 73.8 81.9----
2024-06-21 03:42 am- 0.0 2.9----30.23- 73.9 81.9----
2024-06-21 03:36 amSSE 1.0 1.9----30.23- 73.8 81.9----
2024-06-21 03:30 am S 1.9 2.9----30.23- 73.9 82.0----
2024-06-21 03:24 amSSE 1.0 4.1----30.23- 73.9 82.0----
2024-06-21 03:18 am- 0.0 1.9----30.23- 73.9 82.0----
2024-06-21 03:12 am SE 1.0 2.9----30.23- 73.9 81.9----
2024-06-21 03:06 am SE 1.0 2.9----30.23- 73.9 81.7----
2024-06-21 03:00 amSSE 1.9 5.1----30.23-0.02 74.1 81.9----
2024-06-21 02:54 am SE 2.9 5.1----30.23- 74.1 82.0----
2024-06-21 02:48 am S 1.0 2.9----30.23- 74.3 82.0----
2024-06-21 02:42 amSSE 1.0 2.9----30.23- 74.3 82.0----
2024-06-21 02:36 am S 1.0 2.9----30.23- 74.3 82.0----
2024-06-21 02:30 amSSE 1.0 1.9----30.24- 74.3 82.0----
2024-06-21 02:24 am SE 1.0 2.9----30.24- 74.5 81.9----
2024-06-21 02:18 amSSE 1.9 5.1----30.24- 74.5 81.9----
2024-06-21 02:12 am SE 1.9 2.9----30.24- 74.7 82.2----
2024-06-21 02:06 am S 1.9 2.9----30.24- 74.8 82.2----
2024-06-21 02:00 am S 1.9 4.1----30.24-0.01 74.8 82.2----
2024-06-21 01:54 amSSE 1.0 2.9----30.24- 74.8 82.2----
2024-06-21 01:48 am SE 1.9 4.1----30.24- 75.0 82.0----
2024-06-21 01:42 amSSE 1.0 1.9----30.24- 75.0 82.2----
2024-06-21 01:36 am SE 1.9 2.9----30.24- 75.2 82.2----
2024-06-21 01:30 am S 1.9 2.9----30.24- 75.2 82.2----
2024-06-21 01:24 am SE 1.9 5.1----30.24- 75.2 82.0----
2024-06-21 01:18 am SE 2.9 5.1----30.24- 75.4 81.7----
2024-06-21 01:12 amSSE 2.9 4.1----30.24- 75.6 81.1----
2024-06-21 01:06 amSSE 1.9 2.9----30.24- 75.6 81.7----
2024-06-21 01:00 amSSE 1.0 2.9----30.25+0.00 75.7 82.4----
2024-06-21 12:54 amSSE 1.9 4.1----30.25- 75.7 82.4----
2024-06-21 12:48 am SE 1.9 5.1----30.24- 75.9 82.6----
2024-06-21 12:42 amSSE 1.9 4.1----30.24- 76.1 82.6----
2024-06-21 12:36 am SE 2.9 5.1----30.24- 76.1 82.8----
2024-06-21 12:30 am SE 2.9 5.1----30.24- 76.3 82.8----
2024-06-21 12:24 amSSE 2.9 4.1----30.25- 76.5 82.8----
2024-06-21 12:18 am S 1.9 5.1----30.25- 76.5 82.8----
2024-06-21 12:12 amSSE 2.9 5.1----30.25- 76.8 82.8----
2024-06-21 12:06 am S 4.1 6.0----30.25- 76.8 82.8----
2024-06-21 12:00 amSSE 4.1 7.0----30.25+0.01 77.0 82.8----
2024-06-20 11:54 pm S 4.1 8.0----30.25- 77.2 82.8----
2024-06-20 11:48 pm S 5.1 8.0----30.25- 77.4 82.8----
2024-06-20 11:42 pm S 2.9 8.9----30.25- 77.5 82.8----
2024-06-20 11:36 pmSSE 5.1 8.0----30.26- 77.5 82.6----
2024-06-20 11:30 pmSSE 4.1 6.0----30.26- 77.5 82.8----
2024-06-20 11:24 pmSSE 4.1 6.0----30.26- 77.7 82.8----
2024-06-20 11:18 pm S 5.1 7.0----30.26- 77.9 82.6----
2024-06-20 11:12 pm S 5.1 8.0----30.25- 77.9 82.6----
2024-06-20 11:06 pm S 4.1 6.0----30.25- 78.1 82.4----
2024-06-20 11:00 pmSSE 1.9 8.0----30.25+0.01 78.1 82.4----
2024-06-20 10:54 pmSSE 1.9 8.9----30.25- 78.3 82.4----
2024-06-20 10:48 pmSSE 4.1 7.0----30.25- 78.3 82.4----
2024-06-20 10:42 pm S 5.1 7.0----30.25- 78.3 82.4----
2024-06-20 10:36 pmSSE 2.9 7.0----30.25- 78.3 82.4----
2024-06-20 10:30 pmSSE 2.9 5.1----30.25- 78.3 82.4----
2024-06-20 10:24 pmSSE 2.9 7.0----30.25- 78.3 82.4----
2024-06-20 10:18 pmSSE 4.1 8.9----30.25- 78.3 82.4----
2024-06-20 10:12 pmSSE 2.9 7.0----30.25- 78.3 82.4----
2024-06-20 10:06 pmSSE 4.1 6.0----30.25- 78.4 82.6----
2024-06-20 10:00 pmSSE 5.1 8.9----30.25+0.00 78.4 82.6----
2024-06-20 09:54 pm SE 6.0 11.1----30.25- 78.4 82.6----
2024-06-20 09:48 pm SE 5.1 12.0----30.24- 78.4 82.6----
2024-06-20 09:42 pm SE 5.1 8.9----30.24- 78.4 82.6----
2024-06-20 09:36 pmSSE 5.1 12.0----30.24- 78.4 82.6----
2024-06-20 09:30 pm SE 5.1 11.1----30.24- 78.4 82.8----
2024-06-20 09:24 pmSSE 2.9 8.9----30.24- 78.6 82.8----
2024-06-20 09:18 pm S 6.0 9.9----30.24- 78.6 82.8----
2024-06-20 09:12 pmSSE 5.1 8.0----30.24- 78.8 82.8----
2024-06-20 09:06 pmSSE 5.1 8.9----30.24- 78.8 82.6----
2024-06-20 09:00 pmSSE 5.1 9.9----30.24-0.01 79.0 82.6----
2024-06-20 08:54 pmSSE 6.0 9.9----30.23- 79.0 82.6----
2024-06-20 08:48 pmSSE 5.1 11.1----30.24- 79.2 82.8----
2024-06-20 08:42 pmSSE 6.0 11.1----30.23- 79.3 82.6----
2024-06-20 08:36 pmSSE 5.1 12.0----30.24- 79.5 82.6----
2024-06-20 08:30 pmSSE 5.1 8.9----30.24- 79.7 82.6----
2024-06-20 08:24 pmSSE 5.1 11.1----30.24- 80.1 82.6----
2024-06-20 08:18 pmSSE 4.1 8.9----30.24- 80.4 82.6----
2024-06-20 08:12 pmSSE 5.1 11.1----30.24- 80.4 82.6----
2024-06-20 08:06 pmSSE 7.0 13.0----30.24- 80.6 82.6----
2024-06-20 08:00 pm S 5.1 11.1----30.24-0.02 81.0 82.6----
2024-06-20 07:54 pmSSE 7.0 11.1----30.24- 80.8 82.6----